www.pogodaiklimat.ru

Погода и климат >> Архив погоды >> Россия >> Камчатский край >> Долиновка


ПОГОДА в Долиновке

  • Прогноз погоды в Долиновке
  • Монитор погоды в Долиновке

АРХИВ ПОГОДЫ в Долиновке

Время (UTC), дата Ветер
(напр.,м/с)
 
Видим.   Явления Облачность Т
(С)
Тd
(С)
f
(%)
Тe
(С)
Тes
(С)
Комфортность P
(гПа)
Po
(гПа)
Тmin
(С)
Tmax
(С)
R
(мм)
R24
(мм)
S
(см)
06 12.09 СВ 1 50 км 8/8 1000 м
[Sc]
+14.1 -0.0 38 +15 +15 1012.2 1000.0
09 12.09 штиль 0 20 км 3/3 1000 м
[Sc]
+4.1 +3.1 93 +3 +3 1012.5 999.9 +17.3
12 12.09 штиль 0 20 км 3/3 1000 м
[Sc]
+0.4 +0.3 99 -1 -1 1014.1 1001.3
15 12.09 штиль 0 20 км 3/3 1000 м
[Sc]
-1.5 -1.5 100 -3 -3 1014.2 1001.3
18 12.09 штиль 0 20 км 3/3 1000 м
[Sc]
-2.5 -2.5 100 -4 -4 1014.1 1001.2
21 12.09 штиль 0 50 км 9/5 1000 м
[Sc Ci sp]
-0.2 -0.4 99 -2 -1 1014.9 1002.1 -2.9
00 13.09 Ю 1 50 км 9/5 1000 м
[Sc Ci sp]
+7.9 +1.9 66 +7 +11 1013.7 1001.3
03 13.09 СВ 1 50 км 8/3 1000 м
[Sc Ci fib]
+14.5 -3.3 29 +15 +18 1012.2 1000.0
06 13.09 В 1 50 км 8/0
[Ci fib]
+15.3 -3.1 28 +16 +17 1010.8 998.7
09 13.09 штиль 0 20 км ясно +2.9 +2.2 95 +2 +2 1011.7 999.1 +16.1
12 13.09 штиль 0 20 км ясно -1.2 -1.2 100 -3 -3 1014.2 1001.3
15 13.09 штиль 0 20 км ясно -2.9 -2.9 100 -4 -4 1012.9 1000.0
18 13.09 Ю 1 20 км ясно -4.1 -4.2 99 -7 -7 1014.3 1001.3
21 13.09 З 1 50 км ясно -0.1 -0.5 97 -2 -1 1013.6 1000.8 -4.7
00 14.09 ЮЗ 1 50 км ясно +10.3 +0.6 51 +10 +18 1012.3 1000.0
03 14.09 В 2 50 км 3/0
[Ci fib]
+15.0 0.0 36 +15 +20 1010.8 998.7
06 14.09 Ю 1 50 км 3/0
[Ci fib]
+16.2 -1.9 29 +17 +18 1010.8 998.7
09 14.09 штиль 0 20 км 3/0
[Ci fib]
+3.8 +3.0 95 +3 +3 1010.8 998.3 +16.5
12 14.09 штиль 0 20 км 6/0
[Ci fib]
-1.0 -1.1 99 -2 -2 1012.9 1000.0
15 14.09 штиль 0 20 км 9/0
[Ci fib]
-2.1 -2.1 100 -4 -4 1012.9 1000.0
18 14.09 штиль 0 20 км 9/4 1000 м
[Sc Ci fib]
-2.5 -2.5 100 -4 -4 1014.2 1001.3
21 14.09 штиль 0 50 км 10/8 1000 м
[Sc Ac As]
+0.3 +0.1 99 -1 -1 1012.7 999.9 -2.6
00 15.09 Ю 1 50 км 10/8 1000 м
[Sc Ac As]
+7.0 +2.3 72 +6 +7 1011.9 999.5
03 15.09 Ю 1 50 км 9/8 1000 м
[Sc Ac As Ci fib]
+13.2 +3.3 51 +14 +14 1010.9 998.7
06 15.09 штиль 0 20 км слаб. ливневой дождь 10/10 600 м
[Cb cap]
+9.5 +8.9 96 +9 +9 1012.3 1000.0
09 15.09 штиль 0 20 км {ливн. осадки} 8/8 1000 м
[Sc]
+7.0 +6.6 97 +6 +6 1012.7 1000.3 +13.7 0.8
12 15.09 штиль 0 20 км {ливн. осадки} 8/8 1000 м
[Sc]
+1.9 +1.8 99 +1 +1 1014.5 1001.8
15 15.09 штиль 0 20 км 9/9 1000 м
[Sc]
+0.7 +0.6 99 -1 -1 1016.8 1004.0
18 15.09 штиль 0 20 км 6/6 1000 м
[Sc]
-1.0 -1.0 100 -2 -2 1018.2 1005.3
21 15.09 СЗ 1 50 км 8/4 1000 м
[Sc Ci sp]
+2.0 +1.9 99 0 +1 1019.4 1006.7 -1.6
00 16.09 ЮЗ 2 50 км 4/0
[Ci sp]
+12.9 +5.1 59 +12 +18 1019.1 1006.9
03 16.09 З 1 50 км ясно +16.5 +1.4 36 +17 +25 1018.8 1006.7
06 16.09 В 1 50 км ясно +17.6 +0.3 31 +19 +20 1018.8 1006.7
09 16.09 штиль 0 20 км 4/0
[Ci sp]
+4.7 +3.7 93 +4 +4 1019.4 1006.7 +18.7
12 16.09 штиль 0 20 км 4/0
[Ci sp]
+0.7 +0.6 99 -1 -1 1020.9 1008.0
15 16.09 штиль 0 20 км 8/0
[Ci sp]
-2.7 -2.7 100 -4 -4 1021.0 1008.0
18 16.09 штиль 0 20 км 9/0
[Ci sp]
-3.3 -3.4 99 -5 -5 1019.8 1006.7
21 16.09 штиль 0 50 км 9/0
[Ci fib]
+0.2 -0.1 98 -1 0 1018.5 1005.6 -4.0
00 17.09 З 1 50 км 9/0
[Ci fib]
+11.7 +1.4 49 +12 +18 1015.3 1003.1
03 17.09 В 1 50 км 9/3 1000 м
[Sc Ci sp]
+16.9 -1.3 29 +18 +19 1012.1 1000.0
06 17.09 С 1 50 км 9/6 1000 м
[Sc Ac As Ci sp]
+16.4 +5.4 48 +17 +17 1010.7 998.7
09 17.09 штиль 0 20 км 10/6 1000 м
[Sc Ac As]
+8.7 +6.1 84 +8 +8 1008.9 996.6 +18.6
12 17.09 штиль 0 20 км 9/4 1000 м
[Sc Ci sp]
+4.7 +4.1 96 +4 +4 1008.4 995.9
15 17.09 штиль 0 20 км 9/0
[Ci sp]
+1.1 +1.0 99 -0 -0 1008.7 996.0
18 17.09 штиль 0 20 км 9/0
[Ci sp]
+1.0 +0.9 99 -0 -0 1008.7 996.0
21 17.09 штиль 0 50 км 9/4 1000 м
[Sc Ci sp]
+2.6 +2.5 99 +1 +2 1007.9 995.4 +0.5
00 18.09 Ю 1 50 км 9/5 1000 м
[Sc Ac As Ci sp]
+9.6 +4.4 70 +9 +11 1008.0 995.7
03 18.09 штиль 0 50 км 10/6 1000 м
[Sc Ac As]
+12.0 +4.2 59 +12 +12 1008.2 996.0
06 18.09 штиль 0 50 км 10 баллов +11.9 +5.5 65 +12 +12 1008.2 996.0
09 18.09 штиль 0 20 км 10/10 1000 м
[Sc]
+6.3 +5.9 97 +5 +5 1009.8 997.3 +12.7
12 18.09 штиль 0 20 км 10 баллов +4.2 +3.9 98 +3 +3 1011.3 998.7
15 18.09 штиль 0 20 км 10 баллов +2.7 +2.6 99 +1 +1 1011.4 998.7
18 18.09 штиль 0 20 км 10 баллов +1.9 +1.8 99 +1 +1 1011.4 998.7
21 18.09 штиль 0 50 км 9/8 1000 м
[Sc Ac trans]
+3.4 +3.3 99 +2 +2 1011.1 998.5 +0.9
00 19.09 Ю 1 50 км 9/3 1000 м
[Sc Ci sp]
+13.1 +4.6 56 +13 +18 1010.3 998.2

 

Местоположение метеостанции Долиновка (Камчатский край, Россия): широта 55.12 долгота 159.00 высота над уровнем моря 102 м.

В архиве по умолчанию представлена погода в Долиновке за последнюю неделю. Архивные данные за месяц целиком и за предыдущие месяцы, начиная с января 2011 года, Вы можете получить, выбрав интересующий диапазон дат из раскрывающегося списка и нажав кнопку "Ввод!".


*Определитесь, кто Вы:
робот инопланетянин человек

Внимание! Время в таблицах - всемирное. Для получения местного времени необходимо прибавить поправку, которая равна 12 ч.

Смотрите также архив погоды в соседних городах и на ближайших метеорологических станциях:

Погода в Мильково (Камчатский край, Россия) (58 км)
Погода в Эссо (Камчатский край, Россия) (92 км)
Погода в Козыревске (Камчатский край, Россия) (115 км)
Погода в Пущино (Камчатский край, Россия) (123 км)
Погода в Семячике (Камчатский край, Россия) (125 км)
Погода в Ключах (Камчатский край, Россия) (175 км)
Погода в Соболево (Камчатский край, Россия) (219 км)
Погода в Иче (Камчатский край, Россия) (227 км)
Погода в Петропавловск-Камч. 2 (Камчатский край, Россия) (229 км)
Погода в Сосновке (Камчатский край, Россия) (231 км)

Пояснения к столбцам:

Ветер - указаны скорость ветра в м/с - средняя за 10 мин, порывы в срок и между сроками (в фигурных скобках) и направление, откуда дует ветер: С - северный, СВ - северо-восточный, В - восточный, ЮВ - юго-восточный, Ю - южный, ЮЗ - юго-западный, З - западный, СЗ - северо-западный.
Видимость - горизонтальная дальность видимости в метрах или километрах. При видимости от 1 до 10 км при отсутствии осадков обычно наблюдается дымка, при ухудшении видимости до 1 км и менее - туман. В сухую погоду видимость может ухудшаться дымом, пылью или мглою.
Явления - указаны атмосферные явления, наблюдавшиеся в срок или в последний час перед сроком; фигурными скобками обозначены явления, наблюдавшиеся между сроками (за 1-3 часа до срока); квадратными скобками обозначены град или гололедные отложения с указанием их диаметра в мм.
Облачность - указаны через наклонную черту общая и нижняя облачность в баллах и высота нижней границы облаков в метрах; квадратными скобками обозначены формы облаков: Ci - перистые, Cs - перисто-слоистые, Cc - перисто-кучевые, Ac - высококучевые, As - высокослоистые, Sc - слоисто-кучевые, Ns - слоисто-дождевые, Cu - кучевые, Cb - кучево-дождевые. Подробнее классификацию облаков см. в Атласе облаков (PDF).
T - Температура воздуха - температура, измеренная на высоте 2 м над землей.
Td - Температура точки росы - температура, при понижении до которой содержащийся в воздухе водяной пар достигнет насыщения.
f - Относительная влажность воздуха - влажноcть воздуха, измеренная на высоте 2 м над землей.
Te - Эффективная температура - температура, которую ощущает одетый по сезону человек в тени. Характеристика душности погоды. При расчете учитывается влияние влажности воздуха и скорости ветра на теплоощущения человека.
Tes - Эффективная температура на солнце - температура, которую ощущает человек, с поправкой на солнечный нагрев. Характеристика знойности погоды. Зависит от высоты солнца над горизонтом, облачности и скорости ветра. Ночью, в пасмурную погоду, а также при ветре 12 м/с и более поправка равна нулю.
P - Атмосферное давление - приведенное к уровню моря атмосферное давление.
Po - Атмосферное давление - измеренное на уровне метеостанции атмосферное давление.
Tmin - Минимальная температура - минимум температуры воздуха на высоте 2 м над землей.
Tmax - Максимальная температура - максимум температуры воздуха на высоте 2 м над землей.
R - Количество осадков - Количество выпавших осадков за период времени, мм. При наведении курсора мыши на число - период времени, за который выпало указанное количество осадков.
R24 - Количество осадков - Количество выпавших осадков за 24 часа, мм.
S - Снежный покров - Высота снежного покрова, см. При наведении курсора мыши на число - состояние снежного покрова и степень покрытия местности в баллах.